When you browse on this site, cookies collect data to enhance your experience and personalize the content and advertising you see.
Visit our Privacy Policy to learn more. By continuing to use the site, you agree to this use of cookies and data.
  • In Czech Republic
  • List of Countries
  • For 7 days
  • Water Temperature
  • Weather Map
  • Weather Widgets
  • user-avatar
    Login

    Hourly Weather Oran

    Today, 29 January, Wednesday

    Time Temperature Precipitation Wind Pressure Humidity
    00:00 +13°C° 0 mm 2 mps 758 mmHg 64%
    01:00 +11°C° 0 mm 3 mps 758 mmHg 64%
    02:00 +11°C° 0 mm 3 mps 757 mmHg 65%
    03:00 +11°C° 0 mm 3 mps 757 mmHg 65%
    04:00 +12°C° 0 mm 2 mps 757 mmHg 66%
    05:00 +10°C° 0 mm 2 mps 757 mmHg 67%
    06:00 +10°C° 0 mm 2 mps 757 mmHg 67%
    07:00 +13°C° 0 mm 2 mps 758 mmHg 61%
    08:00 +15°C° 0 mm 2 mps 758 mmHg 55%
    09:00 +17°C° 0 mm 2 mps 758 mmHg 49%
    10:00 +18°C° 0 mm 2 mps 758 mmHg 44%
    11:00 +19°C° 0 mm 3 mps 758 mmHg 38%
    12:00 +21°C° 0 mm 3 mps 758 mmHg 31%
    13:00 +20°C° 0 mm 3 mps 758 mmHg 33%
    14:00 +20°C° 0 mm 3 mps 757 mmHg 35%
    15:00 +20°C° 0 mm 3 mps 757 mmHg 37%
    16:00 +18°C° 0 mm 2 mps 757 mmHg 44%
    17:00 +16°C° 0 mm 2 mps 757 mmHg 50%
    18:00 +14°C° 0 mm 2 mps 758 mmHg 57%
    19:00 +14°C° 0 mm 2 mps 758 mmHg 55%
    20:00 +14°C° 0 mm 2 mps 758 mmHg 54%
    21:00 +14°C° 0 mm 2 mps 758 mmHg 52%
    22:00 +14°C° 0 mm 2 mps 758 mmHg 52%
    23:00 +13°C° 0 mm 2 mps 758 mmHg 51%

    Tomorrow, 30 January, Thursday

    Time Temperature Precipitation Wind Pressure Humidity
    00:00 +13°C° 0 mm 2 mps 758 mmHg 51%
    01:00 +13°C° 0 mm 2 mps 758 mmHg 50%
    02:00 +13°C° 0 mm 2 mps 757 mmHg 50%
    03:00 +13°C° 0 mm 2 mps 757 mmHg 49%
    04:00 +13°C° 0 mm 2 mps 757 mmHg 48%
    05:00 +13°C° 0 mm 2 mps 757 mmHg 47%
    06:00 +12°C° 0 mm 3 mps 757 mmHg 46%
    07:00 +13°C° 0 mm 3 mps 757 mmHg 46%
    08:00 +16°C° 0 mm 3 mps 758 mmHg 45%
    09:00 +17°C° 0 mm 3 mps 758 mmHg 45%
    10:00 +19°C° 0 mm 3 mps 758 mmHg 41%
    11:00 +20°C° 0 mm 4 mps 758 mmHg 37%
    12:00 +21°C° 0 mm 5 mps 758 mmHg 33%
    13:00 +21°C° 0 mm 5 mps 758 mmHg 35%
    14:00 +21°C° 0 mm 5 mps 757 mmHg 36%
    15:00 +21°C° 0 mm 5 mps 756 mmHg 38%
    16:00 +19°C° 0 mm 4 mps 757 mmHg 45%
    17:00 +17°C° 0 mm 4 mps 757 mmHg 52%
    18:00 +14°C° 0 mm 4 mps 757 mmHg 59%
    19:00 +14°C° 0 mm 4 mps 757 mmHg 58%
    20:00 +13°C° 0 mm 4 mps 757 mmHg 57%
    21:00 +13°C° 0 mm 4 mps 757 mmHg 56%
    22:00 +13°C° 0 mm 4 mps 758 mmHg 54%
    23:00 +13°C° 0 mm 4 mps 758 mmHg 51%

    Day after tomorrow, 31 January, Friday

    Time Temperature Precipitation Wind Pressure Humidity
    00:00 +13°C° 0 mm 5 mps 758 mmHg 49%
    01:00 +13°C° 0 mm 5 mps 758 mmHg 49%
    02:00 +13°C° 0 mm 5 mps 757 mmHg 48%
    03:00 +13°C° 0 mm 5 mps 757 mmHg 48%
    04:00 +13°C° 0 mm 5 mps 757 mmHg 48%
    05:00 +13°C° 0 mm 5 mps 757 mmHg 48%
    06:00 +13°C° 0 mm 6 mps 757 mmHg 48%
    07:00 +13°C° 0 mm 6 mps 757 mmHg 51%
    08:00 +14°C° 0 mm 6 mps 758 mmHg 53%
    09:00 +15°C° 0 mm 6 mps 758 mmHg 55%
    10:00 +16°C° 0 mm 6 mps 758 mmHg 52%
    11:00 +17°C° 0 mm 6 mps 758 mmHg 50%
    12:00 +20°C° 0 mm 6 mps 758 mmHg 47%
    13:00 +19°C° 0 mm 6 mps 757 mmHg 47%
    14:00 +19°C° 0 mm 5 mps 757 mmHg 46%
    15:00 +19°C° 0 mm 5 mps 757 mmHg 45%
    16:00 +18°C° 0 mm 4 mps 757 mmHg 51%
    17:00 +16°C° 0 mm 3 mps 757 mmHg 57%
    18:00 +14°C° 0 mm 2 mps 757 mmHg 62%
    19:00 +14°C° 0 mm 2 mps 757 mmHg 62%
    20:00 +14°C° 0 mm 2 mps 757 mmHg 62%
    21:00 +14°C° 0 mm 2 mps 758 mmHg 61%
    22:00 +14°C° 0 mm 2 mps 758 mmHg 60%
    23:00 +12°C° 0 mm 3 mps 758 mmHg 60%

    1 February, Saturday

    Time Temperature Precipitation Wind Pressure Humidity
    00:00 +12°C° 0 mm 3 mps 757 mmHg 59%
    01:00 +12°C° 0 mm 3 mps 757 mmHg 59%
    02:00 +12°C° 0 mm 3 mps 757 mmHg 59%
    03:00 +12°C° 0 mm 3 mps 757 mmHg 59%
    04:00 +12°C° 0 mm 3 mps 757 mmHg 60%
    05:00 +12°C° 0 mm 3 mps 757 mmHg 60%
    06:00 +12°C° 0 mm 3 mps 757 mmHg 61%
    07:00 +13°C° 0 mm 3 mps 757 mmHg 58%
    08:00 +16°C° 0 mm 3 mps 758 mmHg 54%
    09:00 +17°C° 0 mm 2 mps 758 mmHg 51%
    10:00 +18°C° 0 mm 3 mps 758 mmHg 50%
    11:00 +19°C° 0 mm 3 mps 758 mmHg 48%
    12:00 +20°C° 0 mm 4 mps 758 mmHg 46%
    13:00 +20°C° 0 mm 4 mps 758 mmHg 48%
    14:00 +20°C° 0 mm 4 mps 758 mmHg 50%
    15:00 +20°C° 0 mm 3 mps 757 mmHg 51%
    16:00 +18°C° 0 mm 3 mps 757 mmHg 55%
    17:00 +17°C° 0 mm 3 mps 758 mmHg 59%
    18:00 +15°C° 0 mm 2 mps 758 mmHg 63%
    19:00 +15°C° 0 mm 2 mps 758 mmHg 64%
    20:00 +14°C° 0 mm 1 mps 759 mmHg 65%
    21:00 +14°C° 0 mm 1 mps 759 mmHg 66%
    22:00 +14°C° 0 mm 1 mps 759 mmHg 65%
    23:00 +13°C° 0 mm 1 mps 759 mmHg 65%

    2 February, Sunday

    Time Temperature Precipitation Wind Pressure Humidity
    00:00 +13°C° 0 mm 1 mps 759 mmHg 64%
    01:00 +13°C° 0 mm 1 mps 759 mmHg 67%
    02:00 +13°C° 0 mm 1 mps 759 mmHg 69%
    03:00 +12°C° 0 mm 0 mps 759 mmHg 71%
    04:00 +12°C° 0 mm 0 mps 759 mmHg 72%
    05:00 +13°C° 0 mm 1 mps 759 mmHg 74%
    06:00 +13°C° 0 mm 1 mps 759 mmHg 75%
    07:00 +15°C° 0 mm 1 mps 759 mmHg 68%
    08:00 +18°C° 0 mm 1 mps 760 mmHg 61%
    09:00 +19°C° 0 mm 1 mps 760 mmHg 54%
    10:00 +21°C° 0 mm 1 mps 760 mmHg 51%
    11:00 +22°C° 0 mm 1 mps 760 mmHg 48%
    12:00 +23°C° 0 mm 1 mps 760 mmHg 46%
    13:00 +24°C° 0 mm 2 mps 760 mmHg 45%
    14:00 +24°C° 0 mm 2 mps 759 mmHg 44%
    15:00 +25°C° 0 mm 2 mps 759 mmHg 43%
    16:00 +22°C° 0 mm 3 mps 759 mmHg 48%
    17:00 +20°C° 0 mm 3 mps 759 mmHg 54%
    18:00 +19°C° 0 mm 3 mps 759 mmHg 59%
    19:00 +18°C° 0 mm 3 mps 759 mmHg 62%
    20:00 +17°C° 0 mm 3 mps 759 mmHg 66%
    21:00 +17°C° 0 mm 3 mps 760 mmHg 69%
    22:00 +16°C° 0 mm 3 mps 760 mmHg 69%
    23:00 +16°C° 0 mm 2 mps 760 mmHg 69%

    3 February, Monday

    Time Temperature Precipitation Wind Pressure Humidity
    00:00 +16°C° 0 mm 2 mps 759 mmHg 69%
    01:00 +16°C° 0 mm 2 mps 759 mmHg 68%
    02:00 +16°C° 0 mm 2 mps 759 mmHg 67%
    03:00 +15°C° 0 mm 2 mps 759 mmHg 65%
    04:00 +15°C° 0 mm 2 mps 759 mmHg 66%
    05:00 +15°C° 0 mm 2 mps 759 mmHg 66%
    06:00 +14°C° 0 mm 2 mps 758 mmHg 67%
    07:00 +16°C° 0 mm 2 mps 759 mmHg 62%
    08:00 +18°C° 0 mm 2 mps 759 mmHg 56%
    09:00 +19°C° 0 mm 2 mps 760 mmHg 51%
    10:00 +22°C° 0 mm 1 mps 760 mmHg 46%
    11:00 +23°C° 0 mm 1 mps 759 mmHg 41%
    12:00 +25°C° 0 mm 1 mps 759 mmHg 35%
    13:00 +25°C° 0 mm 1 mps 759 mmHg 35%
    14:00 +25°C° 0 mm 2 mps 758 mmHg 34%
    15:00 +26°C° 0 mm 2 mps 758 mmHg 33%
    16:00 +23°C° 0 mm 1 mps 758 mmHg 42%
    17:00 +20°C° 0 mm 1 mps 758 mmHg 50%
    18:00 +18°C° 0 mm 1 mps 758 mmHg 59%
    19:00 +18°C° 0 mm 1 mps 758 mmHg 59%
    20:00 +16°C° 0 mm 1 mps 758 mmHg 59%
    21:00 +16°C° 0 mm 1 mps 759 mmHg 59%
    22:00 +15°C° 0 mm 2 mps 759 mmHg 59%
    23:00 +15°C° 0 mm 2 mps 759 mmHg 60%
    Show more